QPF
0.00 0.00 0.01 0.02 0.02 0.02 0.01 0.00 0.00 0.00 0.00 0.00 0.00 0.00 0.00 0.00 0.01 0.01 0.00 0.00 0.00 0.00 0.01 0.02 0.03 0.03 0.05 0.12 0.12 0.08 0.07 0.07 0.05 0.02 0.02 0.02 0.01 0.00 0.00 0.01 0.02 0.02 0.02 0.02 0.02 0.03 0.03 0.04 0.03
0.00 0.00 0.01 0.04 0.02 0.01 0.00 0.00 0.00 0.00 0.00 0.00 0.00 0.00 0.00 0.00 0.00 0.00 0.00 0.00 0.00 0.00 0.00 0.01 0.02 0.04 0.06 0.14 0.15 0.10 0.08 0.08 0.06 0.04 0.02 0.03 0.02 0.01 0.01 0.02 0.02 0.02 0.01 0.01 0.02 0.03 0.03 0.03 0.03
0.00 0.00 0.01 0.03 0.02 0.01 0.00 0.00 0.00 0.00 0.00 0.00 0.00 0.00 0.00 0.00 0.00 0.00 0.00 0.00 0.00 0.00 0.00 0.01 0.02 0.06 0.11 0.14 0.19 0.16 0.11 0.09 0.08 0.06 0.04 0.03 0.03 0.02 0.02 0.03 0.02 0.01 0.01 0.01 0.02 0.03 0.03 0.03 0.03
0.00 0.00 0.01 0.01 0.01 0.01 0.00 0.00 0.00 0.00 0.00 0.00 0.00 0.00 0.00 0.00 0.00 0.00 0.00 0.00 0.00 0.00 0.00 0.01 0.02 0.05 0.06 0.08 0.10 0.14 0.12 0.09 0.07 0.06 0.05 0.04 0.04 0.02 0.02 0.02 0.02 0.01 0.01 0.01 0.01 0.02 0.02 0.02 0.02
0.00 0.00 0.00 0.00 0.00 0.00 0.00 0.00 0.00 0.00 0.00 0.00 0.00 0.00 0.00 0.00 0.00 0.00 0.01 0.00 0.00 0.00 0.00 0.01 0.02 0.03 0.03 0.04 0.05 0.07 0.10 0.10 0.09 0.08 0.06 0.05 0.06 0.05 0.03 0.02 0.02 0.01 0.01 0.01 0.01 0.01 0.02 0.03 0.02
0.00 0.00 0.00 0.00 0.00 0.00 0.00 0.00 0.00 0.00 0.00 0.00 0.00 0.00 0.00 0.00 0.01 0.01 0.01 0.00 0.01 0.01 0.00 0.00 0.01 0.01 0.02 0.02 0.03 0.03 0.05 0.09 0.12 0.11 0.09 0.08 0.07 0.07 0.04 0.03 0.02 0.02 0.02 0.03 0.02 0.01 0.02 0.08 0.07
0.01 0.00 0.00 0.00 0.00 0.00 0.00 0.00 0.00 0.00 0.00 0.00 0.00 0.00 0.00 0.00 0.01 0.01 0.01 0.01 0.01 0.01 0.01 0.00 0.00 0.01 0.01 0.01 0.01 0.02 0.02 0.03 0.08 0.10 0.09 0.09 0.09 0.08 0.07 0.05 0.04 0.04 0.03 0.02 0.02 0.02 0.02 0.05 0.10
0.01 0.01 0.00 0.00 0.00 0.00 0.00 0.00 0.00 0.00 0.00 0.00 0.00 0.00 0.00 0.00 0.00 0.01 0.01 0.01 0.02 0.02 0.02 0.01 0.01 0.02 0.02 0.01 0.01 0.01 0.01 0.01 0.03 0.06 0.07 0.07 0.08 0.08 0.07 0.06 0.05 0.05 0.04 0.03 0.02 0.01 0.02 0.02 0.06
0.01 0.01 0.01 0.00 0.00 0.00 0.00 0.00 0.00 0.00 0.00 0.00 0.00 0.00 0.00 0.00 0.00 0.01 0.01 0.01 0.01 0.02 0.02 0.02 0.01 0.02 0.02 0.02 0.02 0.01 0.01 0.01 0.02 0.04 0.08 0.09 0.07 0.06 0.05 0.05 0.05 0.05 0.06 0.04 0.02 0.01 0.01 0.01 0.02
0.01 0.01 0.01 0.00 0.00 0.00 0.00 0.00 0.00 0.00 0.00 0.00 0.00 0.00 0.00 0.01 0.01 0.01 0.01 0.01 0.02 0.01 0.02 0.02 0.01 0.02 0.02 0.03 0.02 0.02 0.02 0.02 0.02 0.03 0.05 0.06 0.07 0.08 0.09 0.07 0.07 0.07 0.06 0.05 0.03 0.02 0.01 0.01 0.01
0.01 0.01 0.00 0.00 0.00 0.01 0.01 0.00 0.00 0.00 0.00 0.00 0.00 0.00 0.01 0.01 0.01 0.01 0.01 0.01 0.02 0.02 0.02 0.02 0.02 0.02 0.02 0.03 0.03 0.03 0.03 0.03 0.03 0.03 0.03 0.04 0.05 0.06 0.09 0.09 0.10 0.09 0.06 0.05 0.04 0.02 0.01 0.01 0.01
0.00 0.00 0.00 0.00 0.00 0.01 0.01 0.01 0.01 0.00 0.00 0.00 0.00 0.00 0.01 0.01 0.01 0.01 0.01 0.01 0.02 0.02 0.02 0.02 0.02 0.03 0.02 0.02 0.02 0.03 0.04 0.04 0.04 0.04 0.04 0.04 0.03 0.04 0.06 0.08 0.10 0.09 0.06 0.04 0.04 0.03 0.01 0.01 0.01
0.00 0.00 0.00 0.00 0.00 0.00 0.00 0.01 0.00 0.00 0.00 0.00 0.01 0.01 0.01 0.01 0.01 0.00 0.01 0.01 0.01 0.01 0.01 0.01 0.02 0.01 0.02 0.02 0.02 0.02 0.04 0.06 0.06 0.06 0.06 0.05 0.04 0.04 0.07 0.09 0.11 0.10 0.09 0.06 0.04 0.04 0.02 0.01 0.01
0.00 0.00 0.00 0.00 0.00 0.00 0.00 0.00 0.00 0.00 0.00 0.00 0.01 0.01 0.01 0.01 0.01 0.00 0.00 0.00 0.00 0.00 0.01 0.01 0.01 0.01 0.01 0.02 0.02 0.02 0.02 0.04 0.06 0.07 0.06 0.05 0.04 0.05 0.06 0.07 0.10 0.12 0.13 0.09 0.05 0.04 0.03 0.01 0.00
0.01 0.01 0.00 0.00 0.00 0.00 0.00 0.00 0.00 0.00 0.00 0.00 0.00 0.00 0.00 0.01 0.01 0.01 0.00 0.00 0.00 0.00 0.00 0.01 0.01 0.01 0.01 0.02 0.02 0.02 0.02 0.03 0.05 0.06 0.06 0.06 0.05 0.06 0.07 0.05 0.06 0.08 0.11 0.12 0.09 0.05 0.04 0.01 0.00
0.02 0.02 0.01 0.00 0.00 0.00 0.00 0.00 0.00 0.00 0.00 0.00 0.00 0.00 0.00 0.00 0.00 0.00 0.00 0.00 0.00 0.00 0.00 0.00 0.01 0.01 0.01 0.01 0.01 0.02 0.02 0.02 0.03 0.04 0.04 0.05 0.06 0.08 0.08 0.05 0.04 0.05 0.06 0.09 0.10 0.08 0.05 0.03 0.01
0.02 0.02 0.01 0.00 0.00 0.00 0.00 0.00 0.00 0.00 0.00 0.00 0.00 0.00 0.00 0.00 0.00 0.00 0.00 0.00 0.00 0.00 0.00 0.00 0.00 0.00 0.01 0.01 0.01 0.01 0.01 0.01 0.01 0.02 0.02 0.02 0.03 0.05 0.07 0.06 0.05 0.04 0.05 0.06 0.08 0.09 0.06 0.05 0.04
0.02 0.01 0.01 0.00 0.00 0.00 0.00 0.00 0.00 0.00 0.00 0.00 0.00 0.00 0.00 0.00 0.00 0.00 0.00 0.00 0.00 0.00 0.00 0.00 0.00 0.00 0.00 0.01 0.01 0.01 0.01 0.01 0.01 0.01 0.01 0.02 0.03 0.03 0.04 0.05 0.05 0.05 0.04 0.05 0.05 0.06 0.06 0.06 0.05
0.01 0.01 0.00 0.00 0.00 0.00 0.00 0.00 0.00 0.00 0.00 0.00 0.00 0.00 0.00 0.00 0.00 0.00 0.00 0.00 0.00 0.00 0.00 0.00 0.00 0.00 0.00 0.01 0.01 0.01 0.01 0.01 0.01 0.01 0.01 0.02 0.04 0.07 0.08 0.06 0.05 0.05 0.05 0.05 0.04 0.04 0.04 0.04 0.05
0.01 0.01 0.01 0.00 0.00 0.00 0.00 0.00 0.00 0.00 0.00 0.00 0.00 0.00 0.00 0.01 0.00 0.00 0.00 0.00 0.00 0.00 0.00 0.00 0.00 0.00 0.00 0.00 0.00 0.00 0.01 0.01 0.01 0.01 0.01 0.01 0.02 0.03 0.06 0.11 0.10 0.08 0.06 0.06 0.05 0.04 0.04 0.03 0.03
0.01 0.01 0.01 0.01 0.01 0.01 0.00 0.00 0.00 0.00 0.01 0.01 0.01 0.01 0.00 0.00 0.00 0.00 0.00 0.00 0.00 0.00 0.00 0.00 0.00 0.00 0.00 0.00 0.01 0.01 0.01 0.01 0.01 0.02 0.01 0.01 0.01 0.01 0.01 0.03 0.06 0.08 0.09 0.09 0.08 0.06 0.04 0.03 0.02
0.01 0.01 0.01 0.01 0.02 0.02 0.01 0.01 0.00 0.00 0.01 0.01 0.01 0.01 0.00 0.00 0.00 0.00 0.00 0.00 0.00 0.00 0.00 0.00 0.00 0.00 0.00 0.00 0.01 0.01 0.01 0.01 0.01 0.01 0.01 0.01 0.01 0.01 0.01 0.01 0.02 0.03 0.05 0.06 0.08 0.09 0.07 0.06 0.04
0.00 0.00 0.00 0.01 0.02 0.02 0.02 0.01 0.00 0.00 0.00 0.00 0.01 0.01 0.00 0.00 0.00 0.00 0.00 0.00 0.00 0.00 0.00 0.00 0.00 0.00 0.00 0.00 0.00 0.01 0.01 0.01 0.01 0.01 0.01 0.01 0.01 0.01 0.01 0.01 0.01 0.02 0.02 0.03 0.04 0.06 0.06 0.06 0.06
0.00 0.01 0.01 0.02 0.03 0.04 0.02 0.01 0.00 0.00 0.00 0.00 0.00 0.01 0.01 0.00 0.00 0.00 0.00 0.00 0.00 0.00 0.00 0.00 0.00 0.00 0.00 0.00 0.00 0.00 0.00 0.01 0.01 0.01 0.01 0.01 0.01 0.01 0.01 0.01 0.01 0.02 0.02 0.02 0.03 0.05 0.05 0.04 0.03
0.02 0.02 0.04 0.05 0.06 0.04 0.01 0.01 0.00 0.00 0.00 0.00 0.00 0.01 0.01 0.00 0.00 0.00 0.00 0.00 0.01 0.01 0.01 0.01 0.00 0.00 0.00 0.00 0.00 0.00 0.00 0.00 0.01 0.01 0.01 0.01 0.01 0.02 0.02 0.02 0.02 0.02 0.02 0.03 0.04 0.05 0.05 0.05 0.04
0.02 0.02 0.03 0.04 0.03 0.01 0.00 0.00 0.00 0.00 0.00 0.00 0.00 0.01 0.01 0.01 0.01 0.01 0.01 0.01 0.01 0.01 0.01 0.01 0.01 0.01 0.01 0.01 0.00 0.00 0.00 0.00 0.00 0.01 0.01 0.01 0.02 0.02 0.02 0.02 0.03 0.03 0.03 0.04 0.05 0.05 0.07 0.07 0.06
0.01 0.02 0.01 0.03 0.02 0.01 0.00 0.00 0.00 0.00 0.00 0.00 0.01 0.01 0.01 0.02 0.01 0.01 0.01 0.01 0.01 0.01 0.01 0.01 0.01 0.01 0.01 0.01 0.01 0.01 0.01 0.00 0.00 0.00 0.01 0.01 0.02 0.02 0.03 0.03 0.03 0.03 0.03 0.03 0.04 0.05 0.05 0.07 0.08
0.01 0.01 0.02 0.04 0.05 0.02 0.01 0.00 0.00 0.00 0.00 0.00 0.00 0.01 0.01 0.01 0.01 0.01 0.01 0.01 0.01 0.01 0.01 0.01 0.01 0.01 0.01 0.01 0.01 0.02 0.01 0.01 0.01 0.01 0.01 0.01 0.01 0.02 0.03 0.03 0.03 0.03 0.03 0.03 0.03 0.04 0.05 0.06 0.06
0.02 0.02 0.03 0.03 0.03 0.03 0.01 0.00 0.00 0.00 0.00 0.00 0.00 0.00 0.01 0.01 0.01 0.01 0.01 0.01 0.01 0.01 0.01 0.01 0.01 0.01 0.01 0.01 0.01 0.02 0.02 0.02 0.02 0.02 0.01 0.01 0.01 0.01 0.02 0.03 0.03 0.03 0.03 0.03 0.03 0.03 0.04 0.04 0.04
0.02 0.03 0.03 0.03 0.02 0.02 0.01 0.00 0.00 0.00 0.00 0.00 0.00 0.01 0.01 0.00 0.01 0.01 0.01 0.01 0.01 0.01 0.01 0.01 0.01 0.01 0.01 0.01 0.02 0.02 0.02 0.02 0.02 0.02 0.02 0.02 0.02 0.02 0.02 0.02 0.03 0.03 0.03 0.03 0.02 0.02 0.03 0.03 0.03
MSLP
1014.26 1014.56 1015.02 1015.57 1016.12 1016.57 1016.87 1016.98 1016.92 1016.70 1016.40 1016.07 1015.73 1015.39 1015.04 1014.63 1014.14 1013.54 1012.85 1012.12 1011.41 1010.80 1010.36 1010.13 1010.12 1010.31 1010.62 1011.00 1011.39 1011.74 1012.06 1012.35 1012.64 1012.96 1013.33 1013.75 1014.19 1014.62 1015.00 1015.33 1015.58 1015.78 1015.96 1016.15 1016.38 1016.66 1016.97 1017.30 1017.61
1014.84 1015.21 1015.73 1016.28 1016.79 1017.16 1017.34 1017.30 1017.07 1016.69 1016.25 1015.81 1015.40 1015.03 1014.67 1014.30 1013.85 1013.30 1012.66 1011.97 1011.28 1010.69 1010.25 1010.02 1010.02 1010.20 1010.52 1010.92 1011.33 1011.71 1012.06 1012.38 1012.68 1013.01 1013.38 1013.78 1014.20 1014.61 1014.98 1015.30 1015.56 1015.78 1015.98 1016.20 1016.46 1016.76 1017.09 1017.43 1017.74
1015.49 1015.92 1016.45 1016.98 1017.42 1017.68 1017.73 1017.55 1017.17 1016.67 1016.12 1015.60 1015.14 1014.75 1014.40 1014.04 1013.63 1013.13 1012.54 1011.89 1011.24 1010.67 1010.25 1010.02 1010.01 1010.19 1010.50 1010.90 1011.31 1011.70 1012.05 1012.37 1012.68 1013.00 1013.34 1013.72 1014.11 1014.50 1014.87 1015.19 1015.47 1015.72 1015.97 1016.23 1016.52 1016.84 1017.19 1017.55 1017.88
1016.20 1016.66 1017.17 1017.65 1018.01 1018.16 1018.08 1017.78 1017.30 1016.70 1016.09 1015.52 1015.04 1014.64 1014.30 1013.97 1013.59 1013.13 1012.59 1011.98 1011.37 1010.83 1010.43 1010.20 1010.18 1010.33 1010.61 1010.97 1011.35 1011.71 1012.03 1012.33 1012.61 1012.91 1013.23 1013.59 1013.97 1014.36 1014.73 1015.07 1015.38 1015.68 1015.97 1016.27 1016.60 1016.95 1017.33 1017.70 1018.04
1016.93 1017.40 1017.89 1018.31 1018.57 1018.63 1018.45 1018.05 1017.50 1016.86 1016.22 1015.64 1015.15 1014.77 1014.45 1014.14 1013.79 1013.37 1012.87 1012.31 1011.74 1011.23 1010.83 1010.60 1010.54 1010.64 1010.85 1011.13 1011.44 1011.73 1011.99 1012.24 1012.49 1012.76 1013.07 1013.42 1013.80 1014.20 1014.60 1014.98 1015.34 1015.68 1016.03 1016.37 1016.74 1017.12 1017.51 1017.89 1018.25
1017.65 1018.13 1018.58 1018.94 1019.12 1019.10 1018.85 1018.40 1017.82 1017.17 1016.53 1015.97 1015.51 1015.15 1014.85 1014.56 1014.24 1013.85 1013.38 1012.86 1012.32 1011.83 1011.44 1011.17 1011.05 1011.06 1011.18 1011.35 1011.54 1011.74 1011.93 1012.12 1012.33 1012.59 1012.89 1013.25 1013.65 1014.08 1014.52 1014.94 1015.35 1015.75 1016.14 1016.54 1016.93 1017.34 1017.74 1018.12 1018.49
1018.33 1018.81 1019.24 1019.54 1019.67 1019.58 1019.29 1018.82 1018.24 1017.62 1017.02 1016.50 1016.07 1015.73 1015.45 1015.18 1014.88 1014.50 1014.06 1013.56 1013.05 1012.56 1012.14 1011.83 1011.62 1011.53 1011.51 1011.55 1011.61 1011.70 1011.81 1011.95 1012.14 1012.38 1012.70 1013.09 1013.52 1013.99 1014.47 1014.95 1015.41 1015.86 1016.29 1016.72 1017.15 1017.56 1017.97 1018.36 1018.73
1018.96 1019.44 1019.85 1020.11 1020.19 1020.07 1019.76 1019.29 1018.74 1018.16 1017.60 1017.12 1016.73 1016.42 1016.15 1015.88 1015.58 1015.21 1014.78 1014.29 1013.78 1013.28 1012.83 1012.44 1012.15 1011.92 1011.77 1011.67 1011.61 1011.60 1011.63 1011.73 1011.90 1012.16 1012.51 1012.93 1013.41 1013.92 1014.44 1014.96 1015.46 1015.94 1016.41 1016.87 1017.32 1017.76 1018.18 1018.58 1018.94
1019.57 1020.05 1020.43 1020.66 1020.70 1020.55 1020.22 1019.77 1019.25 1018.71 1018.20 1017.76 1017.40 1017.09 1016.82 1016.54 1016.23 1015.85 1015.41 1014.92 1014.40 1013.88 1013.38 1012.92 1012.53 1012.19 1011.90 1011.67 1011.50 1011.40 1011.38 1011.45 1011.64 1011.92 1012.31 1012.77 1013.29 1013.84 1014.39 1014.93 1015.46 1015.97 1016.47 1016.95 1017.43 1017.89 1018.33 1018.74 1019.11
1020.21 1020.68 1021.02 1021.20 1021.19 1021.01 1020.67 1020.22 1019.72 1019.21 1018.74 1018.32 1017.97 1017.66 1017.36 1017.06 1016.72 1016.32 1015.86 1015.36 1014.82 1014.27 1013.72 1013.20 1012.71 1012.26 1011.87 1011.54 1011.28 1011.12 1011.06 1011.14 1011.34 1011.66 1012.09 1012.59 1013.14 1013.70 1014.27 1014.83 1015.37 1015.90 1016.42 1016.94 1017.45 1017.95 1018.42 1018.85 1019.24
1020.93 1021.37 1021.66 1021.77 1021.70 1021.46 1021.09 1020.63 1020.13 1019.63 1019.17 1018.75 1018.39 1018.05 1017.73 1017.38 1017.00 1016.57 1016.08 1015.56 1014.99 1014.41 1013.83 1013.25 1012.69 1012.17 1011.69 1011.28 1010.97 1010.77 1010.71 1010.79 1011.02 1011.37 1011.83 1012.36 1012.93 1013.51 1014.08 1014.64 1015.19 1015.74 1016.29 1016.84 1017.40 1017.94 1018.46 1018.93 1019.36
1021.79 1022.16 1022.37 1022.39 1022.23 1021.92 1021.49 1020.99 1020.47 1019.96 1019.48 1019.05 1018.66 1018.28 1017.91 1017.52 1017.08 1016.61 1016.09 1015.54 1014.95 1014.34 1013.73 1013.11 1012.51 1011.93 1011.41 1010.96 1010.61 1010.40 1010.33 1010.43 1010.68 1011.06 1011.54 1012.09 1012.67 1013.25 1013.82 1014.39 1014.95 1015.51 1016.10 1016.70 1017.31 1017.91 1018.48 1019.01 1019.47
1022.78 1023.07 1023.16 1023.07 1022.80 1022.40 1021.89 1021.33 1020.77 1020.23 1019.72 1019.26 1018.82 1018.40 1017.96 1017.51 1017.03 1016.50 1015.95 1015.36 1014.75 1014.12 1013.48 1012.85 1012.22 1011.62 1011.07 1010.60 1010.24 1010.02 1009.96 1010.06 1010.33 1010.72 1011.21 1011.77 1012.35 1012.93 1013.51 1014.08 1014.66 1015.26 1015.88 1016.54 1017.21 1017.87 1018.51 1019.09 1019.59
1023.87 1024.04 1024.02 1023.80 1023.41 1022.90 1022.31 1021.69 1021.07 1020.48 1019.93 1019.42 1018.93 1018.46 1017.97 1017.45 1016.91 1016.33 1015.73 1015.10 1014.46 1013.82 1013.16 1012.52 1011.88 1011.28 1010.72 1010.25 1009.88 1009.66 1009.60 1009.70 1009.96 1010.35 1010.84 1011.39 1011.97 1012.56 1013.15 1013.74 1014.36 1015.00 1015.67 1016.38 1017.12 1017.84 1018.54 1019.17 1019.71
1024.95 1025.01 1024.86 1024.52 1024.03 1023.42 1022.76 1022.07 1021.39 1020.76 1020.16 1019.60 1019.07 1018.53 1017.99 1017.41 1016.81 1016.18 1015.52 1014.85 1014.18 1013.50 1012.84 1012.18 1011.54 1010.94 1010.38 1009.91 1009.54 1009.31 1009.23 1009.31 1009.55 1009.92 1010.39 1010.94 1011.52 1012.13 1012.75 1013.38 1014.04 1014.73 1015.47 1016.23 1017.02 1017.80 1018.54 1019.21 1019.78
1025.91 1025.87 1025.62 1025.19 1024.62 1023.94 1023.22 1022.48 1021.76 1021.07 1020.44 1019.83 1019.24 1018.66 1018.06 1017.43 1016.77 1016.08 1015.37 1014.65 1013.93 1013.22 1012.53 1011.86 1011.22 1010.61 1010.06 1009.58 1009.21 1008.95 1008.84 1008.89 1009.09 1009.43 1009.88 1010.41 1011.00 1011.64 1012.30 1012.98 1013.70 1014.45 1015.24 1016.06 1016.89 1017.70 1018.47 1019.16 1019.75
1026.63 1026.53 1026.23 1025.76 1025.15 1024.44 1023.68 1022.91 1022.15 1021.42 1020.73 1020.08 1019.45 1018.83 1018.19 1017.51 1016.80 1016.06 1015.30 1014.52 1013.75 1013.00 1012.27 1011.57 1010.92 1010.31 1009.75 1009.26 1008.87 1008.58 1008.43 1008.42 1008.57 1008.86 1009.27 1009.79 1010.40 1011.06 1011.77 1012.52 1013.30 1014.11 1014.95 1015.80 1016.66 1017.49 1018.28 1018.98 1019.57
1027.07 1026.96 1026.66 1026.21 1025.61 1024.91 1024.14 1023.34 1022.54 1021.76 1021.02 1020.32 1019.65 1018.99 1018.32 1017.62 1016.88 1016.10 1015.29 1014.47 1013.64 1012.84 1012.06 1011.33 1010.65 1010.02 1009.45 1008.95 1008.52 1008.19 1007.99 1007.91 1007.99 1008.22 1008.60 1009.09 1009.70 1010.40 1011.15 1011.96 1012.80 1013.66 1014.54 1015.43 1016.30 1017.13 1017.92 1018.61 1019.22
1027.23 1027.17 1026.95 1026.57 1026.03 1025.36 1024.59 1023.76 1022.91 1022.06 1021.26 1020.50 1019.78 1019.09 1018.41 1017.70 1016.96 1016.16 1015.32 1014.46 1013.59 1012.74 1011.92 1011.15 1010.44 1009.78 1009.19 1008.66 1008.20 1007.82 1007.55 1007.40 1007.40 1007.56 1007.88 1008.34 1008.94 1009.65 1010.45 1011.30 1012.19 1013.10 1014.01 1014.91 1015.78 1016.60 1017.38 1018.07 1018.68
1027.20 1027.26 1027.17 1026.91 1026.46 1025.83 1025.05 1024.17 1023.23 1022.29 1021.39 1020.55 1019.78 1019.08 1018.39 1017.70 1016.98 1016.21 1015.38 1014.50 1013.60 1012.71 1011.85 1011.04 1010.29 1009.61 1008.99 1008.43 1007.93 1007.50 1007.16 1006.93 1006.85 1006.92 1007.17 1007.58 1008.15 1008.86 1009.67 1010.56 1011.48 1012.41 1013.34 1014.24 1015.11 1015.93 1016.69 1017.38 1018.00
1027.14 1027.37 1027.45 1027.32 1026.97 1026.37 1025.56 1024.58 1023.51 1022.43 1021.40 1020.46 1019.63 1018.90 1018.24 1017.60 1016.93 1016.21 1015.42 1014.56 1013.66 1012.75 1011.86 1011.01 1010.24 1009.53 1008.88 1008.30 1007.76 1007.28 1006.87 1006.56 1006.39 1006.37 1006.52 1006.87 1007.39 1008.06 1008.87 1009.76 1010.69 1011.64 1012.57 1013.47 1014.33 1015.14 1015.89 1016.58 1017.21
1027.21 1027.64 1027.89 1027.90 1027.62 1027.01 1026.12 1025.01 1023.76 1022.49 1021.30 1020.23 1019.33 1018.58 1017.95 1017.37 1016.79 1016.15 1015.43 1014.62 1013.75 1012.84 1011.93 1011.07 1010.28 1009.55 1008.88 1008.27 1007.71 1007.18 1006.72 1006.33 1006.06 1005.93 1005.99 1006.24 1006.68 1007.30 1008.07 1008.94 1009.87 1010.81 1011.75 1012.64 1013.49 1014.29 1015.04 1015.74 1016.39
1027.51 1028.13 1028.55 1028.67 1028.42 1027.76 1026.75 1025.45 1023.99 1022.50 1021.11 1019.91 1018.92 1018.15 1017.56 1017.06 1016.57 1016.04 1015.40 1014.66 1013.83 1012.94 1012.04 1011.17 1010.36 1009.62 1008.95 1008.33 1007.74 1007.19 1006.67 1006.21 1005.84 1005.62 1005.57 1005.71 1006.06 1006.60 1007.31 1008.14 1009.04 1009.98 1010.90 1011.79 1012.64 1013.44 1014.19 1014.90 1015.56
1028.06 1028.85 1029.40 1029.58 1029.32 1028.57 1027.39 1025.88 1024.19 1022.47 1020.88 1019.53 1018.46 1017.67 1017.10 1016.67 1016.28 1015.85 1015.31 1014.64 1013.85 1012.99 1012.10 1011.23 1010.42 1009.68 1009.01 1008.39 1007.79 1007.22 1006.66 1006.14 1005.70 1005.38 1005.22 1005.25 1005.50 1005.95 1006.59 1007.36 1008.23 1009.14 1010.06 1010.95 1011.80 1012.60 1013.36 1014.08 1014.76
1028.79 1029.69 1030.32 1030.51 1030.19 1029.32 1027.96 1026.25 1024.33 1022.40 1020.64 1019.15 1018.00 1017.19 1016.64 1016.27 1015.95 1015.59 1015.12 1014.50 1013.75 1012.91 1012.03 1011.16 1010.36 1009.62 1008.96 1008.35 1007.76 1007.18 1006.60 1006.04 1005.53 1005.12 1004.87 1004.80 1004.95 1005.31 1005.86 1006.58 1007.41 1008.31 1009.21 1010.11 1010.97 1011.78 1012.55 1013.27 1013.96
1029.55 1030.50 1031.13 1031.28 1030.87 1029.87 1028.36 1026.46 1024.37 1022.29 1020.39 1018.81 1017.60 1016.76 1016.22 1015.86 1015.58 1015.25 1014.81 1014.21 1013.47 1012.63 1011.75 1010.89 1010.08 1009.36 1008.71 1008.11 1007.54 1006.96 1006.37 1005.79 1005.24 1004.77 1004.44 1004.28 1004.34 1004.61 1005.10 1005.77 1006.56 1007.44 1008.34 1009.25 1010.12 1010.95 1011.73 1012.46 1013.15
1030.15 1031.07 1031.64 1031.70 1031.19 1030.07 1028.44 1026.44 1024.25 1022.09 1020.14 1018.51 1017.28 1016.41 1015.86 1015.49 1015.19 1014.84 1014.37 1013.75 1012.99 1012.13 1011.23 1010.35 1009.55 1008.83 1008.19 1007.61 1007.06 1006.49 1005.91 1005.32 1004.74 1004.23 1003.84 1003.62 1003.61 1003.82 1004.25 1004.87 1005.64 1006.50 1007.42 1008.34 1009.23 1010.08 1010.88 1011.63 1012.32
1030.42 1031.24 1031.69 1031.64 1031.01 1029.82 1028.14 1026.12 1023.93 1021.79 1019.87 1018.26 1017.04 1016.16 1015.57 1015.16 1014.79 1014.37 1013.83 1013.14 1012.31 1011.40 1010.47 1009.57 1008.76 1008.04 1007.42 1006.85 1006.31 1005.76 1005.19 1004.60 1004.01 1003.48 1003.05 1002.79 1002.73 1002.89 1003.28 1003.87 1004.62 1005.49 1006.41 1007.36 1008.28 1009.17 1009.99 1010.76 1011.46
1030.28 1030.92 1031.20 1031.01 1030.29 1029.07 1027.41 1025.47 1023.39 1021.38 1019.57 1018.05 1016.88 1016.01 1015.37 1014.88 1014.41 1013.87 1013.21 1012.42 1011.51 1010.53 1009.55 1008.63 1007.80 1007.08 1006.45 1005.89 1005.36 1004.81 1004.24 1003.65 1003.06 1002.51 1002.07 1001.78 1001.70 1001.83 1002.19 1002.77 1003.52 1004.39 1005.33 1006.31 1007.27 1008.20 1009.06 1009.86 1010.59
1029.74 1030.15 1030.22 1029.89 1029.10 1027.89 1026.32 1024.54 1022.67 1020.86 1019.24 1017.87 1016.77 1015.92 1015.24 1014.65 1014.05 1013.37 1012.58 1011.67 1010.66 1009.62 1008.60 1007.65 1006.80 1006.07 1005.43 1004.85 1004.30 1003.74 1003.16 1002.56 1001.95 1001.40 1000.96 1000.66 1000.56 1000.69 1001.04 1001.60 1002.35 1003.24 1004.20 1005.21 1006.22 1007.19 1008.11 1008.95 1009.72
Thickness
5700 5702 5702 5695 5675 5656 5659 5669 5675 5678 5681 5685 5686 5685 5682 5680 5680 5678 5687 5693 5694 5695 5695 5695 5695 5695 5694 5694 5694 5694 5694 5694 5694 5695 5696 5696 5696 5697 5697 5698 5699 5699 5700 5701 5702 5703 5703 5704 5704
5696 5698 5692 5678 5659 5647 5655 5667 5671 5676 5682 5682 5682 5681 5679 5678 5681 5682 5685 5688 5690 5691 5690 5690 5690 5690 5690 5689 5689 5689 5688 5688 5689 5689 5690 5690 5691 5691 5692 5693 5693 5694 5695 5696 5697 5697 5698 5699 5699
5693 5691 5677 5662 5651 5649 5660 5670 5671 5675 5679 5679 5676 5675 5675 5675 5677 5679 5682 5684 5685 5686 5686 5686 5686 5685 5685 5684 5683 5683 5683 5683 5683 5684 5684 5685 5685 5686 5686 5687 5688 5689 5689 5690 5691 5692 5693 5693 5694
5685 5676 5665 5653 5651 5654 5661 5668 5669 5671 5674 5674 5672 5669 5671 5674 5675 5677 5679 5680 5680 5680 5680 5680 5681 5680 5680 5679 5678 5678 5678 5677 5677 5678 5678 5679 5679 5680 5680 5681 5682 5683 5684 5684 5685 5686 5687 5687 5688
5675 5663 5652 5643 5649 5655 5659 5664 5666 5667 5668 5668 5667 5664 5665 5669 5672 5674 5674 5674 5674 5674 5674 5675 5675 5675 5674 5674 5673 5672 5672 5672 5672 5671 5671 5672 5673 5673 5674 5674 5675 5677 5678 5679 5679 5680 5681 5681 5682
5659 5651 5638 5636 5645 5653 5657 5661 5663 5663 5663 5662 5661 5659 5661 5664 5666 5667 5668 5668 5668 5668 5668 5668 5668 5669 5668 5668 5667 5667 5666 5666 5666 5665 5665 5666 5666 5667 5667 5668 5669 5670 5671 5672 5673 5674 5675 5675 5676
5651 5641 5635 5637 5640 5647 5655 5657 5658 5657 5657 5657 5658 5655 5656 5658 5660 5661 5661 5661 5661 5662 5662 5661 5661 5661 5661 5661 5661 5661 5660 5660 5660 5659 5659 5659 5659 5660 5660 5661 5662 5664 5665 5666 5667 5667 5668 5668 5669
5649 5638 5634 5633 5637 5644 5653 5654 5655 5654 5654 5655 5655 5650 5651 5654 5654 5654 5654 5653 5653 5654 5654 5654 5654 5654 5654 5654 5654 5654 5654 5653 5653 5652 5652 5652 5653 5653 5654 5654 5656 5657 5658 5659 5660 5660 5661 5661 5661
5646 5629 5625 5631 5634 5642 5647 5647 5649 5650 5648 5648 5649 5649 5650 5649 5648 5647 5646 5645 5646 5646 5646 5646 5647 5647 5647 5647 5647 5646 5646 5646 5646 5646 5645 5646 5646 5647 5647 5648 5649 5651 5651 5652 5652 5653 5653 5653 5653
5634 5622 5629 5637 5638 5639 5641 5641 5641 5641 5640 5641 5642 5642 5643 5642 5641 5640 5639 5638 5638 5638 5639 5639 5640 5640 5641 5640 5640 5639 5639 5639 5639 5639 5639 5639 5639 5639 5640 5641 5642 5643 5643 5644 5644 5644 5644 5645 5645
5630 5624 5630 5634 5636 5636 5635 5635 5635 5634 5633 5636 5637 5637 5635 5634 5634 5633 5633 5633 5632 5632 5632 5632 5633 5633 5633 5633 5633 5632 5632 5632 5631 5631 5631 5632 5632 5632 5633 5634 5635 5635 5635 5635 5635 5635 5635 5636 5637
5624 5624 5626 5628 5630 5629 5628 5628 5627 5628 5632 5635 5635 5632 5629 5627 5628 5628 5627 5626 5626 5625 5625 5626 5626 5626 5626 5626 5625 5625 5624 5624 5624 5624 5623 5624 5624 5624 5625 5625 5626 5627 5627 5626 5627 5626 5626 5627 5628
5618 5619 5621 5621 5621 5621 5621 5620 5620 5623 5627 5627 5626 5623 5622 5621 5621 5621 5620 5619 5618 5618 5618 5618 5618 5619 5619 5618 5618 5618 5617 5617 5616 5616 5616 5616 5616 5616 5617 5617 5618 5618 5618 5618 5618 5618 5618 5618 5619
5612 5612 5611 5612 5613 5614 5613 5612 5612 5619 5618 5618 5617 5615 5615 5614 5614 5613 5612 5611 5611 5611 5611 5611 5611 5611 5611 5611 5610 5610 5610 5610 5609 5608 5608 5608 5608 5608 5609 5609 5609 5610 5610 5610 5610 5610 5609 5610 5611
5605 5602 5603 5606 5606 5606 5605 5603 5606 5611 5609 5609 5608 5607 5607 5606 5606 5606 5606 5605 5604 5604 5603 5603 5604 5603 5603 5603 5602 5602 5602 5602 5601 5600 5600 5600 5600 5601 5601 5601 5601 5602 5602 5602 5602 5602 5601 5601 5602
5594 5590 5589 5597 5598 5598 5595 5595 5604 5602 5600 5600 5599 5598 5598 5598 5598 5598 5597 5597 5597 5596 5595 5595 5596 5595 5594 5594 5594 5593 5593 5593 5592 5592 5592 5592 5593 5593 5593 5593 5593 5594 5594 5594 5594 5594 5593 5592 5592
5578 5574 5579 5586 5589 5588 5585 5587 5595 5593 5592 5592 5591 5590 5589 5589 5589 5589 5589 5589 5588 5588 5587 5587 5587 5586 5586 5585 5585 5584 5584 5584 5583 5583 5584 5584 5585 5585 5585 5584 5585 5585 5586 5585 5585 5585 5585 5583 5583
5568 5566 5570 5573 5579 5576 5572 5577 5585 5585 5583 5583 5583 5582 5580 5581 5583 5582 5581 5580 5580 5579 5579 5578 5578 5577 5577 5576 5575 5575 5575 5574 5575 5575 5576 5576 5576 5576 5576 5576 5576 5576 5576 5576 5575 5575 5575 5574 5574
5562 5559 5559 5564 5567 5564 5563 5568 5576 5577 5574 5574 5574 5574 5574 5575 5575 5574 5572 5571 5570 5570 5570 5570 5569 5568 5568 5567 5566 5565 5565 5565 5566 5566 5567 5567 5568 5568 5567 5568 5568 5568 5567 5567 5567 5566 5565 5564 5564
5551 5549 5549 5553 5555 5553 5551 5558 5567 5569 5569 5569 5569 5569 5568 5568 5566 5565 5564 5562 5562 5561 5561 5561 5560 5560 5559 5559 5558 5557 5556 5556 5556 5557 5557 5558 5559 5559 5559 5559 5559 5559 5559 5559 5558 5557 5555 5554 5554
5542 5540 5541 5541 5542 5541 5539 5550 5559 5565 5562 5563 5564 5563 5563 5563 5560 5558 5556 5555 5553 5553 5553 5554 5552 5552 5551 5550 5549 5547 5546 5546 5547 5548 5549 5549 5550 5550 5551 5551 5551 5551 5551 5550 5550 5549 5548 5546 5544
5533 5536 5533 5530 5523 5520 5527 5527 5550 5554 5552 5556 5557 5555 5555 5555 5554 5552 5550 5547 5546 5546 5545 5545 5544 5543 5542 5541 5540 5539 5538 5538 5538 5539 5540 5540 5541 5542 5542 5543 5543 5543 5543 5542 5542 5542 5540 5538 5535
5524 5526 5521 5518 5511 5505 5509 5507 5535 5540 5543 5551 5552 5550 5549 5548 5547 5545 5543 5541 5540 5538 5536 5536 5535 5534 5533 5532 5531 5530 5529 5529 5529 5529 5530 5531 5532 5533 5533 5534 5534 5534 5534 5534 5533 5533 5532 5531 5529
5513 5510 5504 5494 5491 5495 5503 5500 5522 5527 5540 5545 5546 5544 5542 5540 5538 5536 5534 5532 5531 5529 5528 5527 5526 5526 5524 5523 5522 5521 5521 5520 5520 5520 5521 5522 5523 5524 5525 5525 5526 5526 5526 5526 5525 5525 5524 5523 5521
5502 5493 5482 5480 5473 5488 5494 5495 5517 5534 5536 5536 5537 5535 5533 5531 5528 5527 5525 5524 5523 5521 5520 5519 5518 5517 5516 5514 5514 5513 5513 5512 5512 5512 5512 5513 5515 5516 5516 5517 5517 5517 5517 5517 5517 5516 5515 5514 5512
5491 5490 5478 5476 5472 5479 5482 5489 5516 5528 5527 5525 5525 5524 5522 5521 5519 5519 5518 5516 5515 5514 5513 5511 5510 5509 5508 5507 5507 5506 5505 5504 5504 5504 5504 5505 5507 5508 5509 5508 5508 5508 5509 5509 5508 5507 5507 5505 5503
5482 5475 5478 5463 5453 5456 5473 5484 5503 5518 5518 5517 5515 5514 5513 5512 5511 5511 5510 5509 5507 5506 5505 5504 5503 5501 5500 5500 5499 5499 5498 5497 5496 5496 5496 5497 5498 5499 5500 5500 5500 5500 5500 5500 5499 5498 5497 5496 5494
5475 5468 5456 5454 5455 5459 5473 5477 5494 5511 5510 5510 5507 5506 5505 5503 5502 5502 5502 5501 5499 5498 5497 5495 5495 5494 5493 5492 5492 5492 5491 5491 5490 5489 5488 5489 5490 5491 5491 5491 5491 5491 5491 5491 5490 5489 5488 5486 5484
5459 5457 5454 5445 5444 5451 5453 5481 5499 5501 5501 5500 5499 5497 5495 5493 5493 5493 5493 5492 5490 5489 5488 5486 5486 5485 5484 5484 5483 5484 5483 5483 5483 5483 5482 5482 5482 5482 5482 5482 5482 5481 5481 5481 5480 5479 5478 5476 5474
5451 5451 5443 5441 5436 5433 5440 5471 5495 5488 5488 5487 5488 5487 5485 5485 5485 5484 5484 5482 5481 5480 5479 5478 5477 5477 5476 5475 5475 5476 5475 5475 5475 5475 5475 5474 5474 5474 5474 5473 5473 5473 5472 5471 5470 5469 5468 5466 5464